GW2240 Weather Reports


time (UTC)temp
C
wind
direction
speed
KPH
gust
KPH
rain 1hr
cm
rain 24hr
cm
rain mn
cm
humidity
%
barometer
mb
20260505171559 25 154 0.0 0.0 0.00 0.00 0.00 88 1009.6
20260505170058 25 154 0.0 0.0 0.00 0.00 0.00 88 1009.4
20260505164559 25 154 0.0 1.6 0.00 0.00 0.00 89 1009.6
20260505163054 24 190 0.0 1.6 0.00 0.00 0.00 89 1009.7
20260505161552 24 196 0.0 0.0 0.00 0.00 0.00 90 1009.6
20260505153053 24 154 0.0 0.0 0.00 0.00 0.00 89 1009.3
20260505151550 24 173 0.0 0.0 0.00 0.00 0.00 89 1009.2
20260505124515 22 173 0.0 1.6 0.00 0.00 0.00 92 1008.4
20260505123011 22 151 0.0 0.0 0.00 0.00 0.00 92 1008.5
20260505121508 21 151 0.0 0.0 0.00 0.00 0.00 92 1008.7
20260505120013 21 151 0.0 1.6 0.00 0.00 0.00 92 1008.5
20260505114507 21 159 0.0 3.2 0.00 0.00 0.00 92 1008.1
20260505113006 21 159 0.0 0.0 0.00 0.00 0.00 92 1008.5
20260505111510 21 159 0.0 0.0 0.00 0.00 0.00 91 1008.4
20260505101506 21 173 0.0 0.0 0.00 0.00 0.00 91 1008.4
20260505100002 21 151 0.0 3.2 0.00 0.00 0.00 91 1008.5
20260505094502 21 152 0.0 0.0 0.00 0.00 0.00 91 1008.5
20260505093002 21 152 0.0 0.0 0.00 0.00 0.00 91 1008.5
20260505091616 21 152 0.0 0.0 0.00 0.00 0.00 91 1008.9
20260505084606 21 152 0.0 0.0 0.00 0.00 0.00 90 1008.9
20260505083106 21 152 0.0 0.0 0.00 0.00 0.00 89 1008.9
20260505081554 21 152 0.0 0.0 0.00 0.00 0.00 89 1009.2
20260505080052 21 152 0.0 0.0 0.00 0.00 0.00 89 1009.2
20260505074552 21 152 0.0 0.0 0.00 0.00 0.00 89 1009.4
20260505073054 21 152 0.0 0.0 0.00 0.00 0.00 88 1009.5
20260505071548 21 152 0.0 0.0 0.00 0.00 0.00 87 1009.8
20260505070100 21 152 0.0 0.0 0.00 0.00 0.00 87 1009.9
20260505064553 21 152 0.0 1.6 0.00 0.00 0.00 86 1010.1
20260505063044 21 140 0.0 1.6 0.00 0.00 0.00 87 1010.0
20260505061608 21 140 0.0 0.0 0.00 0.00 0.00 86 1010.1
20260505060048 21 140 0.0 3.2 0.00 0.00 0.00 86 1010.3
20260505054546 21 140 0.0 0.0 0.00 0.00 0.00 85 1010.2
20260505053038 21 140 0.0 0.0 0.00 0.00 0.00 85 1010.5
20260505051536 21 140 0.0 0.0 0.00 0.00 0.00 84 1010.8
20260505041531 22 186 0.0 4.8 0.00 0.00 0.00 81 1010.6
20260505040040 22 164 0.0 3.2 0.00 0.00 0.00 81 1010.9
20260505034538 22 173 0.0 3.2 0.00 0.00 0.00 81 1010.8
20260505033030 22 150 0.0 3.2 0.00 0.00 0.00 80 1010.8
20260505031530 22 150 0.0 3.2 0.00 0.00 0.00 79 1011.0
20260505030029 23 145 0.0 3.2 0.00 0.00 0.00 78 1010.9
20260505024529 23 159 0.0 1.6 0.00 0.00 0.00 78 1010.7
20260505023028 23 152 0.0 3.2 0.00 0.00 0.00 77 1010.7
20260505021528 23 151 0.0 3.2 0.00 0.00 0.00 77 1010.7
20260505020036 23 133 0.0 1.6 0.00 0.00 0.00 77 1010.5
20260505014527 23 121 0.0 0.0 0.00 0.00 0.00 77 1010.4
20260505013027 23 154 0.0 0.0 0.00 0.00 0.00 77 1010.2
20260505011528 23 148 0.0 1.6 0.00 0.00 0.00 76 1010.2
20260505010027 23 148 0.0 0.0 0.00 0.00 0.00 75 1010.3
20260505004525 24 148 0.0 0.0 0.00 0.00 0.00 73 1010.3
20260505003026 24 148 0.0 3.2 0.00 0.00 0.00 73 1010.1
20260505001524 25 111 0.0 0.0 0.00 0.00 0.00 72 1010.1
20260505000039 25 144 0.0 3.2 0.00 0.00 0.00 71 1010.3
20260504234525 25 173 0.0 1.6 0.00 0.00 0.00 72 1010.5
20260504233022 25 191 0.0 3.2 0.00 0.00 0.00 71 1010.3
20260504231520 25 164 0.0 3.2 0.00 0.00 0.00 70 1010.5
20260504230018 26 173 0.0 3.2 0.00 0.00 0.00 67 1010.8
20260504224518 26 148 0.0 3.2 0.00 0.00 0.00 68 1010.7
20260504223017 26 159 0.0 3.2 0.00 0.00 0.00 68 1010.9
20260504221525 26 144 0.0 3.2 0.00 0.00 0.00 67 1011.0
20260504220030 26 173 0.0 1.6 0.00 0.00 0.00 68 1011.2
20260504214513 26 209 0.0 0.0 0.00 0.00 0.00 66 1011.3
20260504213015 26 164 0.0 1.6 0.00 0.00 0.00 66 1011.4
20260504211511 26 173 0.0 3.2 0.00 0.00 0.00 67 1011.8
20260504210010 26 179 0.0 0.0 0.00 0.00 0.00 66 1011.9
20260504204508 26 140 0.0 3.2 0.00 0.00 0.00 65 1012.2
20260504203007 27 159 0.0 0.0 0.00 0.00 0.00 65 1012.2
20260504201504 26 144 0.0 3.2 0.00 0.00 0.00 64 1012.7
20260504200005 26 189 0.0 0.0 0.00 0.00 0.00 64 1012.9
20260504194502 27 52 0.0 3.2 0.00 0.00 0.00 63 1013.1
20260504193002 27 173 0.0 3.2 0.00 0.00 0.00 61 1013.2
20260504191600 30 179 0.0 3.2 0.00 0.00 0.00 53 1013.4
20260504190108 26 186 0.0 3.2 0.00 0.00 0.00 62 1013.9
20260504184556 27 198 0.0 3.2 0.00 0.00 0.00 60 1013.9
20260504183100 26 182 0.0 3.2 0.00 0.00 0.00 61 1014.0
20260504181553 27 183 0.0 3.2 0.00 0.00 0.00 62 1014.1
20260504180130 26 202 0.0 3.2 0.00 0.00 0.00 62 1014.2
20260504174547 26 204 0.0 1.6 0.00 0.00 0.00 62 1014.4
20260504173047 26 177 0.0 3.2 0.00 0.00 0.00 63 1014.7